Men’s Basketball: Double-Doubles


DateOpponentResultPlayerPointsReboundsAssistsReplay
03/01/17East CarolinaL, 66-62Kentan Facey1211---Replay
02/08/17USFW, 97-51Jalen Adams18---10Replay
01/28/17TulaneW, 78-68Christian Vital1410---Replay
01/28/17TulaneW, 78-68Kentan Facey2012---Replay
01/25/17USFW, 81-60Jalen Adams20---12Replay
01/22/17East CarolinaW, 72-65Kentan Facey1310---Replay
01/19/17SMUL, 69-49Kentan Facey1310---Highlights
01/11/17TempleW, 73-59Kentan Facey2310---Replay
01/11/17TempleW, 73-59Jalen Adams11---12Replay
12/23/16AuburnL, 70-67 (OT)Kentan Facey1514---Replay
12/18/16North FloridaW, 80-59Jalen Adams13---10Replay
11/22/16ChaminadeW, 93-82Jalen Adams25---11Replay
03/17/16ColoradoW, 74-67Daniel Hamilton1710---Replay
03/13/16MemphisW, 72-58Daniel Hamilton1211---Replay
03/12/16TempleW, 77-62Daniel Hamilton1911---Replay
03/11/16CincinnatiW, 104-97 (4OT)Daniel Hamilton3212---Replay
02/13/16TulsaW, 75-73Daniel Hamilton1210---Replay
02/07/16East CarolinaW, 85-67Daniel Hamilton1216---Replay
02/04/16MemphisW, 77-57Daniel Hamilton1613---Replay
12/23/15CCSUW, 99-52Kentan Facey1012---Replay
12/23/15CCSUW, 99-52Daniel Hamilton1111---Replay
12/20/15UMass-LowellW, 88-79Daniel Hamilton1211---Replay
12/02/15Sacred HeartW, 82-49Daniel Hamilton1413---Replay
11/26/15SyracuseL, 79-76Daniel Hamilton1812---Replay
11/17/15New HampshireW, 85-66Daniel Hamilton1311---Replay
11/13/15MaineW, 100-56Shonn Miller1710---Replay
02/19/15MemphisL, 75-72Daniel Hamilton2513---Replay
02/19/15MemphisL, 75-72Amida Brimah1912---Replay
02/12/15TulsaW, 70-45Daniel Hamilton1111---Replay
01/13/15TulsaL, 66-58Daniel Hamilton1612---Replay
12/31/14TempleL, 57-53 (OT)Daniel Hamilton1012---Replay
12/28/14CCSUW, 81-48Kentan Facey1212---Replay
12/14/14Coppin StateW, 106-85Amida Brimah4012---Replay
12/14/14Coppin StateW, 106-85Daniel Hamilton11---11Replay
04/05/14FloridaW, 63-53DeAndre Daniels2010---Replay
03/28/14Iowa StateW, 81-76DeAndre Daniels2710---Replay
03/15/14LouisvilleL, 71-61DeAndre Daniels1710---Replay
03/01/14CincinnatiW, 51-45Shabazz Napier1811---Replay
02/20/14TempleW, 68-55Shabazz Napier1712---Replay
01/21/14TempleW, 90-66DeAndre Daniels3112---Replay
01/16/14MemphisW, 83-73Shabazz Napier17---10Replay
01/16/14MemphisW, 83-73DeAndre Daniels2311---Replay
01/11/14UCFW, 84-61Shabazz Napier14---11Replay
11/17/13Boston UniversityW, 77-60Shabazz Napier1212---Replay
03/06/13USFL, 65-51DeAndre Daniels2310---Replay
02/27/13GeorgetownL, 79-78 (2OT)DeAndre Daniels2510---Replay
03/08/12SyracuseL, 58-55Andre Drummond1410---Replay
02/25/12SyracuseL, 71-69Andre Drummond1714---Replay
02/15/12DePaulW, 80-54Shabazz Napier14---11Replay
02/15/12DePaulW, 80-54Alex Oriakhi1410---Replay
01/14/12Notre DameW, 67-53Andre Drummond1013---Replay
01/09/12West VirginiaW, 64-57Andre Drummond2011---Replay
12/31/11St. John'sW, 83-69Andre Drummond1611---Replay
11/26/11Florida StateW, 78-76 (OT)Andre Drummond1210---Replay
11/20/11Coppin StateW, 87-70Tyler Olander1110---Replay
11/17/11MaineW, 80-60Andre Drummond1114---Replay
11/17/11MaineW, 80-60Tyler Olander1110---Replay
04/04/11ButlerW, 53-41Alex Oriakhi1111---Replay
03/17/11BucknellW, 81-52Kemba Walker18---12Replay
03/11/11SyracuseW, 76-71 (OT)Alex Oriakhi1511---Replay
03/11/11SyracuseW, 76-71 (OT)Kemba Walker3312---Replay
03/08/11DePaulW, 97-71Alex Oriakhi1319---Replay
02/16/11GeorgetownW, 78-70Kemba Walker31---10Replay
01/22/11TennesseeW, 72-61Alex Oriakhi1210---Replay
01/17/11VillanovaW, 61-59Alex Oriakhi1412---Replay
01/11/11RutgersW, 67-53Alex Oriakhi1712---Replay
01/08/11TexasW, 82-81 (OT)Alex Oriakhi1121---Replay
12/08/10Fairleigh DickensonW, 78-54Roscoe Smith1010---Replay
11/24/10KentuckyW, 84-67Alex Oriakhi1811---Replay
11/23/10Michigan StateW, 70-67Alex Oriakhi1517---Replay
11/12/10Stony BrookW, 79-52Alex Oriakhi1118---Replay
02/22/10West VirginiaW, 73-62Stanley Robinson1513---Replay
01/23/10TexasW, 88-74Kemba Walker19---10Replay
01/23/10TexasW, 88-74Stanley Robinson1712---Replay
01/06/10Seton HallW, 71-63Jerome Dyson16---10Replay
01/02/10Notre DameW, 82-70Stanley Robinson2216---Replay
01/02/10Notre DameW, 82-70Kemba Walker11---10Replay
01/02/10Notre DameW, 82-70Jerome Dyson20---10Replay
12/22/09MaineW, 71-54Stanley Robinson1412---Replay
11/25/09LSUW, 81-55Stanley Robinson1411---Replay
04/04/09Michigan StateL, 82-73Stanley Robinson1513---Replay
03/28/09MissouriW, 82-75Jeff Adrien1210---Replay
03/26/09PurdueW, 72-60Stanley Robinson1011---Replay
03/26/09PurdueW, 72-60Hasheem Thabeet1515---Replay
03/19/09UT-ChattanoogaW, 103-47Jeff Adrien1316---Replay
03/19/09UT-ChattanoogaW, 103-47Hasheem Thabeet2013---Replay
03/12/09SyracuseL, 127-117 (6OT)Stanley Robinson2814---Replay
03/12/09SyracuseL, 127-117 (6OT)AJ Price33---10Replay
03/12/09SyracuseL, 127-117 (6OT)Jeff Adrien1214---Replay
03/12/09SyracuseL, 127-117 (6OT)Hasheem Thabeet1914---Replay
02/28/09Notre DameW, 72-65Hasheem Thabeet1611---Replay
02/25/09MarquetteW, 93-82Stanley Robinson1910---Replay
02/25/09MarquetteW, 93-82Hasheem Thabeet1415---Replay
02/14/09Seton HallW, 62-54Hasheem Thabeet2520---Replay
02/14/09Seton HallW, 62-54Jeff Adrien1415---Replay
02/07/09MichiganW, 69-61Hasheem Thabeet1712---Replay
02/02/09LouisvilleW, 68-51Hasheem Thabeet1411---Replay
01/28/09DePaulW, 71-49Jeff Adrien1213---Replay
01/24/09Notre DameW, 69-61Jeff Adrien1219---Replay
01/21/09VillanovaW, 89-83Jeff Adrien1214---Replay
01/18/09Seton HallW, 76-61Hasheem Thabeet1517---Replay
01/18/09Seton HallW, 76-61Jeff Adrien1312---Replay
01/15/09St. John'sW, 67-55Jeff Adrien1711---Replay
01/10/09CincinnatiW, 81-72Jeff Adrien1312---Replay
01/06/09West VirginiaW, 61-55Hasheem Thabeet1313---Replay
12/26/08FairfieldW, 75-55Jeff Adrien2114---Replay
12/26/08FairfieldW, 75-55Hasheem Thabeet2011---Replay
12/20/08GonzagaW, 88-83 (OT)AJ Price24---10Replay
12/20/08GonzagaW, 88-83 (OT)Gavin Edwards1412---Replay
12/15/08Stony BrookW, 91-57Jeff Adrien1810---Replay
12/04/08BuffaloW, 68-64Hasheem Thabeet2118---Replay
12/01/08Delaware StateW, 79-49Hasheem Thabeet1017---Replay
11/29/08BryantW, 88-58Hasheem Thabeet1612---Replay
11/17/08HartfordW, 99-56Jeff Adrien1215---Replay
03/21/08San DiegoL, 70-69 [OT]Jeff Adrien1813---Replay
03/06/08ProvidenceL, 85-76Hasheem Thabeet1613---Replay
03/01/08West VirginiaW, 79-71Jeff Adrien1710---Replay
02/26/08RutgersW, 79-61Jeff Adrien2711---Replay
02/26/08RutgersW, 79-61Stanley Robinson1813---Replay
02/23/08VillanovaL, 67-65Jeff Adrien1510---Replay
02/19/08DePaulW, 65-60Hasheem Thabeet1613---Replay
02/19/08DePaulW, 65-60Jeff Adrien1211---Replay
02/09/08Georgia TechW, 80-68Jeff Adrien2311---Replay
02/09/08Georgia TechW, 80-68Hasheem Thabeet2415---Replay
02/06/08SyracuseW, 63-61Jeff Adrien1912---Replay
01/28/08LouisvilleW, 69-67Jeff Adrien1210---Replay
01/28/08LouisvilleW, 69-67Stanley Robinson1610---Replay
01/26/08IndianaW, 68-63Stanley Robinson1111---Replay
01/26/08IndianaW, 68-63Jeff Adrien1111---Replay
01/17/08ProvidenceL, 77-65Jeff Adrien1615---Replay
01/08/08St. John'sW, 81-65Jeff Adrien2014---Replay
01/05/08Notre DameL, 73-67Jeff Adrien1611---Replay
01/03/08Seton HallW, 98-86Hasheem Thabeet1511---Replay
12/22/07MaineW, 105-60Stanley Robinson3211---Replay
12/22/07MaineW, 105-60Hasheem Thabeet1610---Replay
12/22/07MaineW, 105-60Jeff Adrien1913---Replay
12/16/07QuinnipiacW, 82-49Jeff Adrien1214---Replay
12/06/07NortheasternW, 69-60Jerome Dyson1610---Replay
11/26/07Florida A&MW, 93-54Jeff Adrien1615---Replay
11/26/07Florida A&MW, 93-54Hasheem Thabeet1212---Replay
11/20/07Gardner-WebbW, 89-72Hasheem Thabeet2214---Replay
11/20/07Gardner-WebbW, 89-72Jeff Adrien2414---Replay
11/08/07BuffaloW, 82-57Stanley Robinson1013---Replay
11/07/07Morgan StateW, 69-65Jeff Adrien1210---Replay
02/28/07VillanovaL, 78-74Jeff Adrien2010---Replay
02/14/07Seton HallW, 67-55Jeff Adrien1215---Replay
02/11/07Georgia TechL, 65-52Jeff Adrien1310---Replay
02/05/07SyracuseW, 67-60Jeff Adrien1212---Replay
01/31/07DePaulL, 66-58Jeff Adrien1011---Replay
01/27/07ProvidenceL, 84-72Jeff Adrien1810---Replay
01/20/07IndianaL, 77-73Jeff Adrien1512---Replay
01/13/07St. John'sW, 68-59Stanley Robinson1312---Replay
01/13/07St. John'sW, 68-59Hasheem Thabeet1210---Replay
01/02/07USFW, 69-50Jeff Adrien1615---Replay
12/06/06NortheasternW, 81-53Jeff Adrien1812---Replay
11/18/06FairfieldW, 74-49Jeff Adrien1712---Replay
11/10/06QuinnipiacW, 53-46Jeff Adrien1416---Replay
03/26/06George MasonL, 86-84 (OT)Marcus Williams13---11Replay
03/24/06WashingtonW, 98-92 (OT)Josh Boone1311---Replay
03/09/06SyracuseL, 86-84 (OT)Marcus Williams17---11Replay
03/09/06SyracuseL, 86-84 (OT)Hilton Armstrong1410---Replay
03/04/06LouisvilleW, 84-80Denham Brown1711---Replay
03/01/06USFW, 66-53Josh Boone1715---Replay
02/26/06VillanovaW, 89-75Marcus Williams10---12Replay
02/21/06Notre DameW, 75-74 (OT)Josh Boone1214---Replay
02/18/06West VirginiaW, 81-75Rudy Gay1412---Replay
02/13/06VillanovaL, 69-64Rudy Gay1910---Replay
02/11/06Seton HallW, 99-57Marcus Williams15---10Replay
02/08/06SyracuseW, 73-50Rudy Gay2213---Replay
02/08/06SyracuseW, 73-50Josh Boone1011---Replay
02/04/06IndianaW, 88-80Rudy Gay1912---Replay
01/31/06PittsburghW, 80-76Marcus Williams11---11Replay
01/28/06ProvidenceW, 76-62Hilton Armstrong1612---Replay
01/16/06SyracuseW, 88-80Marcus Williams14---11Replay
01/16/06SyracuseW, 88-80Josh Boone1810---Replay
01/09/06CincinnatiW, 70-59Hilton Armstrong1410---Replay
01/07/06LSUW, 67-66Rashad Anderson1010---Replay
12/30/05QuinnipiacW, 111-75Hilton Armstrong2610---Replay
12/28/05Stony BrookW, 85-52Hilton Armstrong1111---Replay
12/23/05Morehead StateW, 129-61Jeff Adrien1210---Replay
12/18/05New HampshireW, 86-44Ed Nelson1211---Replay
12/08/05MassachusettsW, 78-60Josh Boone1310---Replay
12/02/05Texas SouthernW, 113-49Josh Boone1712---Replay
11/29/05ArmyW, 68-54Rudy Gay1710---Replay
03/20/05North Carolina StateL, 65-62Charlie Villanueva1612---Replay
03/11/05SyracuseL, 67-63Charlie Villanueva1811---Replay
03/10/05GeorgetownW, 66-62Marcus Williams14---10Replay
03/05/05SyracuseW, 88-70Marcus Williams11---10Replay
02/26/05PittsburghW, 73-64Charlie Villanueva1413---Replay
02/21/05Notre DameW, 88-74Marcus Williams17---12Replay
02/19/05RutgersW, 85-63Charlie Villanueva2111---Replay
02/15/05ProvidenceW, 94-89 (2OT)Marcus Williams15---13Replay
02/15/05ProvidenceW, 94-89 (2OT)Charlie Villanueva2210---Replay
02/15/05ProvidenceW, 94-89 (2OT)Denham Brown1410---Replay
02/15/05ProvidenceW, 94-89 (2OT)Josh Boone1110---Replay
02/13/05North CarolinaL, 77-70Josh Boone1611---Replay
02/07/05SyracuseW, 74-66Charlie Villanueva2110---Replay
01/30/05Notre DameL, 78-74Marcus Williams10---16Replay
01/22/05PittsburghL, 76-66Charlie Villanueva1410---Replay
01/17/05Seton HallW, 77-68Charlie Villanueva1612---Replay
01/15/05RutgersW, 78-64Josh Boone2012---Replay
01/15/05RutgersW, 78-64Charlie Villanueva1414---Replay
01/10/05OkalahomaL, 77-65Charlie Villanueva1314---Replay
01/08/05GeorgetownW, 66-59Charlie Villanueva1913---Replay
12/30/04QunnipiacW, 123-71Josh Boone2210---Replay
12/30/04QuinnipiacW, 123-71Marcus Williams10---10Replay
12/30/04QuinnipiacW, 123-71Charlie Villanueva1713---Replay
12/22/04CCSUW, 87-59Josh Boone2011---Replay
12/19/04RiceW, 81-72Josh Boone2014---Replay
12/04/04IndianaW, 74-69Rudy Gay1110---Replay
11/30/04Florida InternationalW, 99-48Josh Boone1411---Replay
11/20/04BuffaloW, 90-68Josh Boone1811---Replay
04/05/04Georgia TechW, 82-73Emeka Okafor2415---Replay
03/25/04VanderbiltW, 73-53Emeka Okafor1211---Replay
03/20/04DePaulW, 72-55Emeka Okafor1012---Replay
03/18/04VermontW, 70-53Emeka Okafor1514---Replay
03/13/04PittsburghW, 61-58Emeka Okafor1113---Replay
03/12/04VillanovaW, 84-67Josh Boone1115---Replay
03/12/04VillanovaW, 84-67Taliek Brown11---10Replay
03/11/04Notre DameW, 66-58Charlie Villanueva1613---Replay
03/01/04Seton HallW, 89-67Emeka Okafor2515---Replay
02/24/04St. John'sW, 71-53Emeka Okafor2218---Replay
02/21/04Notre DameW, 61-50Josh Boone1211---Replay
02/21/04Notre DameW, 61-50Emeka Okafor1422---Replay
02/18/04MiamiW, 76-63Emeka Okafor1815---Replay
02/15/04PittsburghL, 75-68Josh Boone1213---Replay
02/07/04West VirginiaW, 88-58Emeka Okafor2310---Replay
02/02/04SyracuseW, 84-56Ben Gordon1310---Replay
02/02/04SyracuseW, 84-56Emeka Okafor2511---Replay
01/28/04Virginia TechW, 96-60Emeka Okafor1611---Replay
01/17/04North CarolinaL, 86-83Emeka Okafor2913---Replay
01/17/04North CarolinaL, 86-83Ben Gordon10---10Replay
01/14/04GeorgetownW, 94-70Emeka Okafor2711---Replay
01/11/04OklahomaW, 86-59Emeka Okafor2110---Replay
01/06/04RutgersW, 75-74Charlie Villanueva1512---Replay
01/06/04RutgersW, 75-74Emeka Okafor2116---Replay
01/02/04RiceW, 92-83Emeka Okafor2714---Replay
12/28/03Ball StateW, 101-62Emeka Okafor2514---Replay
12/20/03IonaW, 104-54Charlie Villanueva1511---Replay
12/20/03IonaW, 104-54Emeka Okafor2410---Replay
12/13/03QuinnipiacW, 88-55Hilton Armstrong1112---Replay
11/22/03Sacred HeartW, 111-64Emeka Okafor2310---Replay
11/19/03NevadaW, 93-79Emeka Okafor1314---Replay
11/17/03YaleW, 70-60Emeka Okafor2413---Replay
03/28/03TexasL-82-78Emeka Okafor2117---Replay
03/22/03StanfordW, 85-74Emeka Okafor1815---Replay
03/13/03Seton HallW, 83-70Emeka Okafor1118---Replay
03/08/03Boston CollegeW, 91-54Emeka Okafor2512---Replay
02/24/03Notre DameW, 87-79Emeka Okafor1910---Replay
02/22/03St. John'sW, 77-60Emeka Okafor1312---Replay
02/19/03RutgersW, 87-70Emeka Okafor1510---Replay
02/10/03SyracuseW, 75-61Emeka Okafor1512---Replay
01/27/03St. John'sW, 74-68Emeka Okafor2113---Replay
01/25/03VillanovaW, 74-65Emeka Okafor1410---Replay
01/14/03Virginia TechW, 83-65Emeka Okafor1912---Replay
12/28/02CCSUW, 93-65Emeka Okafor1711---Replay
12/21/02UNC-AshevilleW, 117-67Emeka Okafor1910---Replay
12/07/02WagnerW, 97-85Emeka Okafor2319---Replay
12/01/02VanderbiltW, 76-70Emeka Okafor2511---Replay
11/23/02QuinnipiacW, 91-72Taliek Brown16---10Replay
11/23/02QuinnipiacW, 91-72Emeka Okafor1612---Replay
03/15/02HamptonW, 78-67Emeka Okafor1215---Replay
03/15/02HamptonW, 78-67Johnnie Selvie1311---Replay
03/09/02PittsburghW, 74-65 (2OT)Emeka Okafor1010---Replay
03/07/02VillanovaW, 72-70Caron Butler1411---Replay
02/25/02Boston CollegeW, 75-61Caron Butler2415---Replay
02/11/02VillanovaW, 46-40Caron Butler2011---Replay
02/05/02ProvidenceW, 67-56Caron Butler1613---Replay
01/30/02RutgersL, 63-51Johnnie Selvie1411---Replay
01/26/02ArizonaW, 100-98 (OT)Emeka Okafor1915---Replay
01/23/02St. John'sW, 75-70Emeka Okafor1110---Replay
12/21/01QuinnipiacW, 95-79Emeka Okafor1814---Replay
12/11/01MassachusettsW, 69-59Emeka Okafor1311---Replay
11/19/01VanderbiltW, 84-71Emeka Okafor1112---Replay
03/14/01South CarolinaW, 72-65Edmund Saunders1511---Replay
02/26/01Notre DameW, 75-59Caron Butler1411---Replay
02/26/01Notre DameW, 75-59Souleymane Wane1310---Replay
01/10/01PittsburghW, 73-53Taliek Brown10---10Replay
12/22/00FairfieldW, 100-66Caron Butler16---10Replay
11/28/00BrownW, 88-78Caron Butler2112---Replay
11/28/00BrownW, 88-78Edmund Saunders2013---Replay
11/17/00QuinnipiacW, 86-71Edmund Saunders1511---Replay
11/17/00QuinnipiacW, 86-71Ajou Deng1012---Replay
03/08/00Boston CollegeW, 70-55Jake Voskuhl1611---Replay
03/08/00Boston CollegeW, 70-55Kevin Freeman1111---Replay
02/28/00RutgersW, 74-69Jake Voskuhl1513---Replay
02/09/00Boston CollegeW, 87-58Khalid El-Amin21---10Replay
01/27/00ProvidenceW, 64-54Jake Voskuhl1010---Replay
01/03/00Sacred HeartW, 83-56Edmund Saunders1010---Replay
12/23/99FairfieldW, 84-60Jake Voskuhl1110---Replay
12/04/99UNC-AshevilleW, 98-68Khalid El-Amin14---10Replay
11/22/99MassachusettsW, 79-65Edmund Saunders1610---Replay
11/12/99DukeW, 71-66Kevin Freeman1511---Replay
03/20/99GonzagaW, 67-62Kevin Freeman1315---Replay
03/13/99New MexicoW, 78-56Edmund Saunders1010---Replay
02/06/99StanfordW, 70-59Kevin Freeman1411---Replay
01/16/99PittsburghW, 81-58Jake Voskuhl1412---Replay
01/02/99GeorgetownW, 87-64Albert Mouring1210---Replay
12/12/98PittsburghW, 70-69Jake Voskuhl1012---Replay
11/27/98WagnerW, 111-46Edmund Saunders1510---Replay
11/15/98QuinnipiacW, 102-60Edmund Saunders1211---Replay
03/05/98ProvidenceW, 64-55Richard Hamilton2211---Replay
02/23/98ProvidenceW, 77-68Richard Hamilton2010---Replay
02/23/98ProvidenceW, 77-68Jake Voskuhl1513---Replay
02/21/98VillanovaW, 83-76Kevin Freeman2110---Replay
02/14/98PittsburghW, 92-67Jake Voskuhl1012---Replay
01/27/98ProvidenceW, 63-56Jake Voskuhl1011---Replay
01/27/98ProvidenceW, 63-56Kevin Freeman1711---Replay
01/17/98GeorgetownW, 86-72Kevin Freeman2113---Replay
01/13/98Seton HallW, 80-59Jake Voskuhl1715---Replay
01/03/98Notre DameW, 84-58Jake Voskuhl1211---Replay
12/07/97RutgersW, 59-44Kevin Freeman1210---Replay
11/19/97Rhode IslandW, 80-67Jake Voskuhl1514---Replay
12/27/96MassachusettsW, 64-61Kirk King1510---Replay
12/23/96VirginiaW, 64-61Kirk King1110---Replay
12/07/96Boston CollegeW, 61-54Kirk King1012---Replay
03/22/96Mississippi StateL, 60-55Travis Knight1013---Replay
03/16/96Eastern MichiganW, 95-81Ray Allen2510---Replay
03/09/96GeorgetownW, 75-74Ray Allen1712---Replay
03/08/96SyracuseW, 85-66Travis Knight1212---Replay
02/28/96RutgersW, 78-66Doron Sheffer12---12Replay
02/19/96GeorgetownL, 77-65Travis Knight1310---Replay
02/17/96Notre DameW, 85-65Travis Knight1210---Replay
02/17/96Notre DameW, 85-65Ray Allen2810---Replay
01/31/96RutgersW, 77-59Travis Knight1011---Replay
01/25/96PittsburghW, 69-63Kirk King1311---Replay
01/23/96CCSUW, 116-46Doron Sheffer11---11Replay
01/17/96St. John'sW, 88-73Travis Knight2214---Replay
01/09/96VillanovaW, 81-73Ray Allen2911---Replay
01/06/96MiamiW, 73-52Kirk King1110---Replay
12/12/95Florida StateW, 79-61Travis Knight1010---Replay
12/06/95Notre DameW, 85-65Ray Allen1910---Replay
12/03/95Boston CollegeW, 63-62Ray Allen2212---Replay
12/03/95Boston CollegeW, 63-62Travis Knight1111---Replay
03/25/95UCLAL, 102-96Travis Knight1213---Replay
03/23/95MarylandW, 99-89Ray Allen1811---Replay
03/16/95UT-ChattanoogaW, 100-71Eric Hayward1213---Replay
03/16/95UT-ChattanoogaW, 100-71Travis Knight1213---Replay
02/25/95Seton HallW, 75-61Travis Knight1011---Replay
02/21/95Boston CollegeW, 88-75Travis Knight1210---Replay
02/12/95SyracuseW, 77-70Ray Allen1812---Replay
02/12/95SyracuseW, 77-70Travis Knight1510---Replay
01/21/95Seton HallW, 86-81Travis Knight1714---Replay
01/08/95St. John'sW, 98-78Ray Allen2711---Replay
03/25/94FloridaL, 69-60 (OT)Donyell Marshall1613---Replay
03/17/94RiderW, 64-46Ray Allen1210---Replay
03/11/94St. John'sW, 97-77Donny Marshall1210---Replay
02/09/94Boston CollegeW, 94-91 (2OT)Donyell Marshall3310---Replay
02/01/94SyracuseL, 105-95Donyell Marshall3012---Replay
01/29/94PittsburghW, 88-67Donny Marshall1610---Replay
01/25/94VillanovaW, 91-67Eric Hayward1010---Replay
01/15/94St. John'sW, 85-81Donyell Marshall4213---Replay
01/10/94SyracuseW, 75-67Donyell Marshall2011---Replay
01/08/94Boston CollegeW, 77-71Donyell Marshall2416---Replay
12/08/93Seton HallW, 82-66Donyell Marshall2014---Replay
02/15/93SyracuseW, 80-76Donyell Marshall1614---Replay
02/13/93MiamiW, 88-72Donyell Marshall1914---Replay
02/13/93MiamiW, 88-72Scott Burrell1710---Replay
02/09/93VillanovaW, 82-62Scott Burrell1513---Replay
01/16/93Boston CollegeW, 66-64Donyell Marshall16---10Replay
01/04/93Seton HallL, 72-69Donyell Marshall1814---Replay
03/21/92Ohio StateL, 78-55Donyell Marshall1216---Replay
03/21/92Ohio StateL, 78-55Rod Sellers1213---Replay
03/19/92NebraskaW, 86-65Scott Burrell2011---Replay
03/07/92Boston CollegeW, 89-79Donyell Marshall1911---Replay
02/22/92ProvidenceW, 94-73Rod Sellers1916---Replay
01/27/92VillanovaW, 72-58Rod Sellers1112---Replay
12/02/91Wake ForestW, 84-75Rod Sellers1610---Replay
03/14/91LSUW, 79-62Rod Sellers1110---Replay
02/27/91Seton HallW, 62-60 (OT)Rod Sellers2112---Replay
02/05/91Boston CollegeW, 76-59Scott Burrell1616---Replay
02/02/91VillanovaW, 67-59Rod Sellers1414---Replay
01/08/91VillanovaW, 74-71Toraino Walker1110---Replay
01/02/91Boston CollegeW, 96-70Rod Sellers1411---Replay
01/27/90St. John'sW, 55-50Dan Cyrulik1310---Replay
02/18/89VillanovaL, 76-67 (OT)Cliff Robinson1710---Replay
11/30/88YaleW, 75-44Cliff Robinson1612---Replay
03/30/88Ohio StateW, 72-67Tate George14---10Replay
03/17/88West VirginiaW, 62-57 (OT)Cliff Robinson1212---Replay
01/27/87Boston CollegeW, 66-60Gerry Besselink1313---Replay
01/24/87ProvidenceL, 61-53Cliff Robinson1415---Replay
02/13/85PittsburghL, 78-71Alvin Frederick1312---Replay
01/26/85Boston CollegeL, 78-77 (OT)Ray Broxton1411---Replay
01/10/84St. John'sL, 68-65Tim Coles1613---Replay